Location: Cheyres
(46.8153°N, 6.7877°E)
Time: 14:06:12
(UTC+00:00)

BREEZE M DEB (TANK) - Pass Details

Date: 11 May 2021
Orbit: 273 x 14490 km, 49.6° (Epoch: 19 June)

Event Time Altitude Azimuth Distance (km) Brightness Sun altitude
Rises 19:40:34 0° 275° (W) 5,980 8.7 -7.3°
Reaches altitude 10° 19:46:15 10° 279° (W) 3,438 7.4 -8.0°
Maximum altitude 19:52:43 58° 358° (N) 638 2.9 -8.9°
Drops below altitude 10° 19:55:14 10° 80° (E) 1,348 3.9 -9.2°
Enters shadow 19:55:37 - 83° (E) 1,534 4.2 -9.3°
